Regional Weather Roundup
Issued by NWS

Home | Current Version | Previous Version | Text Only | Print | Product List | Glossary On
Versions: 1 2 3 4 5 6 7 8 9 10 11 12 13 14 15 16 17 18 19 20 21 22 23 24 25 26 27 28 29 30 31 32 33 34 35 36 37 38 39 40 41 42 43 44 45 46 47 48 49
000
ASUS45 KSLC 151010
RWRUT

UTAH REGIONAL WEATHER ROUNDUP
NATIONAL WEATHER SERVICE SALT LAKE CITY UT
400 AM MDT MON SEP 15 2014

UTZ001>011-023>025-151100-

NORTHERN UTAH

CITY           SKY/WX    TMP DP  RH WIND       PRES   REMARKS
HILL AFB       MOCLDY    66  38  36 E18       30.08R
LOGAN          CLEAR     49  44  83 NE3       30.10R
OGDEN          MOCLDY    64  39  39 S7        30.06R
PROVO AIRPORT  CLEAR     57  45  62 SW5       30.10S
SALT LAKE CITY MOCLDY    68  42  38 SE9       30.05R
VERNAL         PTCLDY    57  39  51 CALM      30.17R
WENDOVER       CLEAR     61  34  36 S5        30.05R
HEBER CITY     PTCLDY    45  41  87 CALM      30.20S
WEST JORDAN    CLEAR     61  41  48 S5        30.08S

$$

UTZ012>022-026-027-151100-

SOUTHERN UTAH

CITY           SKY/WX    TMP DP  RH WIND       PRES   REMARKS
BRYCE CANYON   PTCLDY    46  38  73 W8        30.33R
CEDAR CITY     CLEAR     54  39  57 SW5       30.16R
MILFORD        CLEAR     58  38  47 S8        30.11R
MOAB/CYNLANDS  CLEAR     61  41  47 W3        30.08R
PRICE          CLEAR     59  29  31 N10       30.18S
ST GEORGE      MOSUNNY   72  43  35 SE5       29.99S
KANAB            N/A     59  39  47 N7        30.16S

$$

REGIONAL REPORTS     COLORADO/ARIZONA

CITY           SKY/WX    TMP DP  RH WIND       PRES   REMARKS
CRAIG, CO      PTCLDY    42  37  82 CALM      30.27R
GRAND JUNCTION PTCLDY    61  38  42 E12       30.14R
RIFLE          CLEAR     51  38  60 CALM      30.23R
MONTROSE       CLEAR     54  42  64 SE8       30.23R
CORTEZ         CLEAR     50  42  74 E6        30.23R
PAGE, AZ       CLEAR     74  44  34 SE3       30.08R
GRAND CANYON   CLEAR     48  43  82 CALM      30.25S
KINGMAN        CLEAR     68  46  45 S6        30.00S
FLAGSTAFF      MOCLDY    51  47  86 CALM      30.30S

$$

REGIONAL REPORTS    NEVADA/IDAHO/WYOMING

CITY           SKY/WX    TMP DP  RH WIND       PRES   REMARKS
LAS VEGAS, NV  CLEAR     82  47  29 S9        29.84S
ELY            CLEAR     48  34  58 SE6       30.20R
ELKO           CLEAR     50  28  42 E3        30.12S
POCATELLO, ID  CLEAR     53  35  50 E6        30.10S
BURLEY         CLEAR     49  39  68 CALM      30.06S
EVANSTON, WY   PTCLDY    55  33  43 NE3       30.27S
ROCK SPRINGS   CLEAR     46  33  60 E7        30.29S

$$



USA.gov is the U.S. government's official web portal to all federal, state and local government web resources and services.